weather.gov     
National Weather Service

Regional Weather Roundup
NWS Homepage
This page is being discontinued on March 12, 2014.
The same data is available at this site. Please update your bookmarks.
Thank you, and we apologize for the inconvenience.
Please send an email to SR-SRH.Webmaster@noaa.gov with any concerns.


Current Version
Previous Version:    01  02  03  04  05  06  07  08  09  10  11  12  13  14  15  16  17  18  19  20  21  22  23  24  25  26  27  28  29  30  
   31  32  33  34  35  36  37  38  39  40  41  42  43  44  45  46  47  48  49  50  51  52  53  54  55  56  57  58  59  60  
[Printable]
152
ASUS44 KMEG 220010
RWRTN
TENNESSEE HOURLY STATE WEATHER ROUNDUP
NATIONAL WEATHER SERVICE MEMPHIS TN
700 PM CDT SUN SEP 21 2014

TNZ002-004-019-021-049-052-054-088>092-220100-
WEST TENNESSEE

CITY           SKY/WX    TMP DP  RH WIND       PRES   REMARKS
MEMPHIS INTL   PTCLDY    82  66  58 N8        29.98R
NWS MEMPHIS      N/A     81 N/A N/A MISG        N/A
JACKSON        PTCLDY    77  64  64 N8        29.99R
DYERSBURG      CLEAR     73  50  43 N6        30.01R
UNION CITY     CLEAR     66  55  68 N6        30.00R
PARIS          CLEAR     72  46  40 VRB5      30.01R
HUNTINGDON     CLEAR     72  49  44 VRB5      30.00R
LEXINGTON      CLEAR     75  63  64 NW7       29.98R
SAVANNAH       CLEAR     79  70  73 NW3       29.97R
$$

TNZ008-025-027-028-033-062-065-066-220100-
NORTH MIDDLE TENNESSEE

CITY           SKY/WX    TMP DP  RH WIND       PRES   REMARKS
NASHVILLE      PTCLDY    78  55  44 N13G24    29.96R
DICKSON        CLEAR     73  52  46 N10       29.99R
PORTLAND       CLEAR     70  48  46 VRB5      29.97R
CLARKSVILLE    CLEAR     70  50  49 NW9       29.99R
LEBANON        CLEAR     76  52  43 N15       29.95R
SMYRNA         PTCLDY    79  60  51 N17       29.96R
MURFREESBORO   PTCLDY    80  61  52 NW8       29.94R
COOKEVILLE     PTCLDY    75  66  73 NW7       29.95R
LIVINGSTON     PTCLDY    72  59  63 N9        29.97R
GALLATIN       CLEAR     76  51  41 N8        29.97R
CROSSVILLE     PTCLDY    68  65  90 SW3       29.99R FOG
$$

TNZ061-075-076-078-094-096-097-220100-
SOUTH MIDDLE TENNESSEE

CITY           SKY/WX    TMP DP  RH WIND       PRES   REMARKS
LEWISBURG      CLEAR     79  66  64 NW3       29.95R
FAYETTEVILLE   PTCLDY    75  66  73 N3        29.96S
TULLAHOMA      CLEAR     72  66  83 W5        29.98R
WINCHESTER     CLEAR     70  68  94 E3        29.97R
MCMINNVILLE    CLEAR     72  72 100 CALM      29.96R
COLUMBIA       CLEAR     79  64  61 NW3       29.95R
SHELBYVILLE    PTCLDY    79  68  69 W5        29.97R
$$

TNZ017-018-042-046-047-220100-
NORTHEAST TENNESSEE

CITY           SKY/WX    TMP DP  RH WIND       PRES   REMARKS
TRI CITIES     PTCLDY    68  65  90 SW3       29.92S
ELIZABETHTON   MOCLDY    63  63 100 CALM      29.93S FOG
$$

TNZ012-013-036-069-073-074-220100-
CENTRAL EAST TENNESSEE

CITY           SKY/WX    TMP DP  RH WIND       PRES   REMARKS
KNOXVILLE      CLOUDY    72  69  90 S8        29.93R
OAK RIDGE      MOCLDY    74  69  85 CALM      29.94R
GATLINBURG     MOCLDY    72  66  83 SW6       29.93R
MORRISTOWN     CLEAR     72  66  83 W8        29.94R
$$

TNZ083-085-099-220100-
SOUTHEAST TENNESSEE

CITY           SKY/WX    TMP DP  RH WIND       PRES   REMARKS
CHATTANOOGA    MOCLDY    78  67  68 N6        29.94R
$$

SKY/WX REPORTED AS FAIR MEANS FEW OR NO CLOUDS BELOW
12 THOUSAND FEET.





U.S. Dept. of Commerce
NOAA National Weather Service
1325 East West Highway
Silver Spring, MD 20910
E-mail: w-nws.webmaster@noaa.gov
Page last modified: May 16, 2007
NATIONAL WEATHER SERVICE: for Safety, for Work, for Fun - FOR LIFE